カタログに戻る

ATLAS 5 CENTAUR R/B

運用中HEO
NORAD 36396·ROCKET BODY·🇺🇸 United States

打ち上げ Feb 11, 2010 から Cape Canaveral Space Force Station

Loading…

次のパス (今後24時間)

TLE

最新Source: Space-Track

元期: Sep 14, 2026, 02:02 UTC

1 36396U 10005B   26257.08528919 -.00000124  00000-0  00000+0 0  9994
2 36396  28.5618 215.8961 6343247 163.2780 235.1923  2.28842050138702

AllMySatでATLAS 5 CENTAUR R/Bをリアルタイム追跡

Download on the App Store